Home   Weather   Skopje   Past weeks

Flag for Macedonia, Republic of Past Weather in Skopje, Macedonia, Republic of — Yesterday and Last 2 Weeks

Now
16 °F

Clear.


Feels Like: 16 °F
Forecast: 22 / 50 °F
Wind: No wind

Location: Skopje-Petrovec

Current Time: Dec 8, 2016 at 7:20:15 am

Latest Report: Dec 8, 2016 at 7:00 am


Visibility: 4 mi

Pressure: 30.77 "Hg

Humidity: 86%

Dew Point: 12 °F

Location of SkopjeLocation

Past Weather in Skopje — Graph

°F

Skopje Temperature Yesterday

Maximum temperature yesterday: 41 °F (at 11:00 am)
Minimum temperature yesterday: 21 °F (at 5:30 am)
Average temperature yesterday: 30 °F

High & Low Weather Summary for the Past Weeks

 TemperatureHumidityPressure
High50 °F (Dec 2, 2:30 pm)100% (Nov 23, 6:00 am)30.77 "Hg (Nov 23, 6:00 am)
Low18 °F (Dec 8, 4:30 am)37% (Dec 3, 1:00 pm)29.83 "Hg (Dec 2, 12:00 pm)
Average36 °F78%30.26 "Hg
* Reported Nov 23 6:00 am — Dec 8 6:00 am, Skopje, Weather by CustomWeather, © 2016

Note: Actual official high and low records may vary slightly from our data, if they occured in-between our weather recording intervals... More about our weather records

Advertising

Skopje Weather History for the Previous 24 Hours

Scroll right to see more
 ConditionsComfort  
Time TempWeatherWind HumidityBarometerVisibility
6:00 am
Thu, Dec 8
18 °FClear.No wind93%30.74 "Hg4 mi
5:30 am18 °FClear.No wind93%30.74 "Hg4 mi
5:00 am18 °FClear.No wind93%30.74 "Hg4 mi
4:30 am18 °FClear.No wind93%30.74 "Hg4 mi
3:30 am19 °FClear.No wind86%30.74 "Hg4 mi
2:30 am19 °FClear.No wind86%30.77 "Hg5 mi
2:00 am19 °FClear.No wind86%30.74 "Hg5 mi
1:30 am19 °FClear.No wind86%30.74 "Hg5 mi
1:00 am19 °FClear.No wind86%30.74 "Hg5 mi
12:30 am19 °FClear.No wind86%30.74 "Hg5 mi
12:00 am19 °FClear.No wind86%30.74 "Hg4 mi
11:30 pm
Wed, Dec 7
23 °FClear.No wind86%30.74 "Hg4 mi
11:00 pm23 °FClear.No wind86%30.74 "Hg4 mi
10:30 pm23 °FClear.No wind86%30.74 "Hg4 mi
10:00 pm25 °FClear.No wind86%30.74 "Hg5 mi
9:30 pm25 °FClear.No wind80%30.74 "Hg10 mi
9:00 pm27 °FClear.No wind86%30.74 "Hg10 mi
8:30 pm28 °FClear.No wind74%30.74 "Hg10 mi
8:00 pm30 °FClear.5 mph75%30.72 "Hg10 mi
7:30 pm32 °FPassing clouds.9 mph69%30.72 "HgN/A
7:00 pm30 °FPassing clouds.6 mph75%30.69 "HgN/A
6:30 pm32 °FClear.14 mph69%30.69 "Hg10 mi
6:00 pm32 °FClear.15 mph69%30.66 "Hg10 mi
5:30 pm32 °FClear.15 mph69%30.66 "Hg10 mi
5:00 pm32 °FClear.18 mph69%30.66 "Hg10 mi
4:30 pm34 °FClear.23 mph70%30.63 "Hg10 mi
4:00 pm34 °FSunny.21 mph70%30.63 "Hg10 mi
3:30 pm36 °FSunny.21 mph65%30.60 "Hg10 mi
3:00 pm36 °FSunny.23 mph70%30.60 "Hg10 mi
2:30 pm37 °FSunny.24 mph65%30.57 "Hg10 mi
2:00 pm39 °FSunny.22 mph61%30.57 "Hg10 mi
1:30 pm39 °FSunny.22 mph61%30.57 "Hg10 mi
1:00 pm41 °FSunny.20 mph57%30.57 "Hg10 mi
12:30 pm41 °FSunny.23 mph57%30.57 "Hg10 mi
12:00 pm41 °FSunny.18 mph57%30.57 "Hg10 mi
11:30 am41 °FSunny.17 mph57%30.57 "Hg10 mi
11:00 am41 °FSunny.21 mph61%30.57 "Hg10 mi
10:30 am39 °FSunny.18 mph65%30.57 "Hg10 mi
10:00 am39 °FSunny.22 mph65%30.57 "Hg10 mi
9:30 am37 °FSunny.18 mph70%30.57 "Hg10 mi
9:00 am37 °FPassing clouds.8 mph75%30.54 "HgN/A
8:00 am27 °FIce fog.5 mph93%30.54 "Hg3 mi
7:30 am21 °FClear.1 mph93%30.51 "Hg4 mi
7:00 am21 °FClear.No wind93%30.51 "Hg4 mi
Weather by CustomWeather, © 2016

See weather overviewHow to use our weather pages